Regional Weather Roundup
Issued by NWS

Home | Current Version | Previous Version | Graphics & Text | Print | Product List | Glossary On
Versions: 1 2 3 4 5 6 7 8 9 10 11 12 13 14 15 16 17 18 19 20 21 22 23 24 25 26 27 28 29 30 31 32 33 34 35 36 37 38 39 40 41 42 43 44 45 46 47 48 49 50
000
ASUS43 KLOT 220709
RWRIL

ILLINOIS REGIONAL WEATHER ROUNDUP
NATIONAL WEATHER SERVICE CHICAGO/ROMEOVILLE IL
200 AM CDT FRI SEP 22 2017

NOTE: "FAIR" INDICATES FEW OR NO CLOUDS BELOW 12,000 FEET WITH NO
SIGNIFICANT WEATHER AND/OR OBSTRUCTIONS TO VISIBILITY.

* THESE STATIONS ARE NOT UNDER NWS QUALITY CONTROL. THEY ALSO MAY NOT
  REPORT WEATHER SUCH AS PRECIPITATION OR FOG.

ILZ001-002-007-009-015-016-024-220800-
NORTHWEST ILLINOIS

CITY           SKY/WX    TMP DP  RH WIND       PRES   REMARKS
MOLINE         CLEAR     74  67  78 S7        29.98R
STERLING*      CLEAR     73  69  87 CALM      30.02R
SAVANNA*       CLEAR     69  67  95 SE3       30.00R
$$

ILZ003-004-008-010-011-017-018-220800-
NORTH CENTRAL ILLINOIS

CITY           SKY/WX    TMP DP  RH WIND       PRES   REMARKS
ROCKFORD       PTCLDY    71  68  90 CALM      30.03R
FREEPORT*      CLEAR     67  66  96 CALM      30.03S
ROCHELLE*      PTCLDY    69  68  95 S3        30.03S
DE KALB*       CLOUDY    71  69  95 S5        30.04S
PERU*          CLOUDY    75  68  79 S5        30.03R
$$

ILZ005-006-012>014-019>023-220800-
NORTHEAST ILLINOIS

CITY           SKY/WX    TMP DP  RH WIND       PRES   REMARKS
CHICAGO-OHARE  CLOUDY    77  67  71 S6        30.02S
CHICAGO-MIDWAY CLOUDY    81  68  64 S8        30.03R HX  84
AURORA         CLOUDY    74  71  91 SE3       30.03S
LANSING*       PTCLDY    74  69  82 CALM      30.05R
JOLIET*        PTCLDY    74  71  91 CALM      30.03S
WAUKEGAN       CLOUDY    69  69 100 CALM      30.02R FOG
DUPAGE AIRPORT CLOUDY    74  70  87 S5        30.03R
KANKAKEE*      CLEAR     71  67  89 S3        30.05S
WHEELING       CLOUDY    75  71  87 SE3       30.03S
MORRIS*        CLOUDY    72  69  90 CALM      30.02S
ROMEOVILLE*    CLOUDY    73  68  86 SE5       30.04R
NORTHERLY ISL    N/A     73  67  81 S6          N/A
$$

LMZ740>746-220800-
SOUTHERN LAKE MICHIGAN

STATION/POSITION SKY/WX   TEMP    WIND        PRES    VSBY  WAVE
                          AIR SEA DIR/SP/G                  HT/PER
                          (F)     (DEG/KT/KT) (MB)    (MI)  (FT/S)
SOUTHERN BUOY              72 69  110/ 10/ 12 1016.5          1/ 3
WILMETTE HARBOR            74 71  170/  8/  8   N/A           1
HARRISON CRIB              75     170/  6/  7   N/A
BURNHAM HARBOR             75                   N/A
CALUMET HARBOR             79     180/  4/  6 1016.5R
BURNS HARBOR               81     160/  6/ 11 1017.9R
MICHIGAN CITY              77     130/  8/ 10   N/A
MICHIGAN CITY 6N           74 70  150/  6/  8   N/A           0
ST. JOSEPH                 73 70  170/  4/  6 1017.2          1
$$

ILZ025>027-034>036-040-047-049-050-058-095>099-220800-
WEST-CENTRAL ILLINOIS

CITY           SKY/WX    TMP DP  RH WIND       PRES   REMARKS
QUINCY         CLEAR     77  68  73 S6        30.00R
GALESBURG*     CLEAR     72  67  86 SE3       30.02R
MACOMB*        CLEAR     70  67  92 S5        30.03R
JACKSONVILLE*  CLEAR     76  68  75 S7        30.02S
PITTSFIELD*    CLEAR     73  69  89 SE7       30.03R
$$

ILZ028>032-037-038-041>044-048-051>054-059>061-220800-
CENTRAL ILLINOIS

CITY           SKY/WX    TMP DP  RH WIND       PRES   REMARKS
PONTIAC        CLOUDY    69  69  98 SE6       30.04S
BLOOMINGTON    PTCLDY    72  67  84 S8        30.06R
DECATUR        PTCLDY    70  65  84 S3        30.05R
PEORIA         CLEAR     76  68  76 S7        30.02R
LACON*         CLEAR     73  69  88 SE3       30.01S FOG
LINCOLN*       CLOUDY    69  67  93 CALM      30.03S
SPRINGFIELD    CLOUDY    74  68  81 SE6       30.03R
TAYLORVILLE    CLEAR     73  66  79 SE7       30.04S
$$

ILZ033-039-045-046-055>057-062-063-220800-
EAST-CENTRAL ILLINOIS

CITY           SKY/WX    TMP DP  RH WIND       PRES   REMARKS
RANTOUL*       PTCLDY    72  69  89 CALM      30.06S
MATTOON        PTCLDY    70  67  90 S3        30.05R
PARIS*         CLOUDY    70  67  90 S5        30.07S
$$

ILZ079-100>102-220800-
SOUTHWEST ILLINOIS

CITY           SKY/WX    TMP DP  RH WIND       PRES   REMARKS
ALTON          CLEAR     68  68  99 CALM      30.03S
BELLEVILLE     CLEAR     70  66  87 NW1       30.06R
CAHOKIA*       CLEAR     74  68  81 S5        30.02S
SPARTA*        CLEAR     72  69  91 SE3       30.05R
$$

ILZ064>066-069>071-074>076-080>082-084>086-088>090-092>094-220800-
SOUTH-CENTRAL ILLINOIS

CITY           SKY/WX    TMP DP  RH WIND       PRES   REMARKS
CARBONDALE     CLEAR     69  69 100 CALM      30.04R
CAIRO*         CLEAR     67  67 100 CALM      30.03S FOG
EFFINGHAM*     PTCLDY    70  68  93 CALM      30.06F
MARION         CLEAR     75  73  94 CALM      30.05S
MT. VERNON       N/A     65  65 100 CALM      30.05S
CENTRALIA*     CLEAR     69  67  95 CALM      30.04S
SALEM*         CLEAR     74  67  80 CALM      30.05S HAZE
METROPOLIS*    CLEAR     68  67  98 CALM      30.04F FOG
$$

ILZ067-068-072-073-078-083-087-091-220800-
SOUTHEAST ILLINOIS

CITY           SKY/WX    TMP DP  RH WIND       PRES   REMARKS
LAWRENCEVILLE  CLEAR     71  70  96 CALM      30.06R
FLORA*         CLEAR     72  68  89 CALM      30.05S
FAIRFIELD*     CLEAR     70  67  93 CALM      30.04S
HARRISBURG*    CLEAR     68  67  96 CALM      30.05S
ROBINSON*      PTCLDY    67  66  99 CALM      30.07S
CARMI*         CLEAR     68  67  98 CALM      30.05R
$$

ABBREVIATIONS USED IN REMARKS
   TC - TEMPERATURE IN CELSIUS
  WCI - WIND CHILL INDEX
   HX - HEAT INDEX
  VSB - VISIBILITY
$$





USA.gov is the U.S. government's official web portal to all federal, state and local government web resources and services.